Location: Unspecified
(0.0000°N, 0.0000°E)
Time: 18:42:40
(UTC+00:00)

Tiros 1 - All Passes

Search period start: 18 April 2019 00:00
Search period end: 28 April 2019 00:00
Orbit: 630 x 664 km, 48.4° (Epoch: 17 April)

Date Brightness Start Highest point End Pass type
(mag) Time Alt. Az. Time Alt. Az. Time Alt. Az.
18 Apr - 08:10:01 10° NNW 08:14:11 33° NE 08:18:20 10° ESE daylight
18 Apr - 09:53:01 10° W 09:56:11 18° SW 09:59:22 10° S daylight
18 Apr - 20:22:25 10° SSW 20:27:09 63° SE 20:31:54 10° NE visible
18 Apr - 22:08:17 10° WNW 22:09:16 11° NW 22:10:15 10° NW night (unlit)
19 Apr - 08:35:35 10° NW 08:40:11 70° SW 08:44:48 10° SSE daylight
19 Apr - 19:07:59 10° S 19:11:07 17° SE 19:14:15 10° E visible
19 Apr - 20:48:44 10° WSW 20:53:10 38° NW 20:57:36 10° NNE visible
20 Apr - 07:20:10 10° N 07:24:13 29° NE 07:28:14 10° ESE daylight
20 Apr - 09:02:47 10° W 09:06:14 20° SW 09:09:40 10° S daylight
20 Apr - 19:32:30 10° SSW 19:37:11 55° SE 19:41:52 10° NE visible
20 Apr - 21:17:26 10° WNW 21:19:16 12° NW 21:21:07 10° NNW visible
21 Apr - 07:45:36 10° NW 07:50:14 80° SW 07:54:52 10° SE daylight
21 Apr - 18:18:21 10° SSE 18:21:08 15° SE 18:23:55 10° E visible
21 Apr - 19:58:40 10° WSW 20:03:11 43° NW 20:07:43 10° NNE visible
22 Apr - 06:30:22 10° N 06:34:15 26° NE 06:38:07 10° ESE daylight
22 Apr - 08:12:35 10° WNW 08:16:16 23° SW 08:19:57 10° S daylight
22 Apr - 18:42:37 10° SSW 18:47:12 48° SE 18:51:49 10° NE visible
22 Apr - 20:26:54 10° W 20:29:17 14° NW 20:31:40 10° NNW visible
23 Apr - 06:55:37 10° NW 07:00:17 90° SSE 07:04:55 10° SE daylight
23 Apr - 17:28:49 10° SSE 17:31:09 13° SE 17:33:29 10° E daylight
23 Apr - 19:08:38 10° SW 19:13:13 48° NW 19:17:49 10° NNE visible
24 Apr - 05:40:34 10° N 05:44:17 23° NE 05:47:59 10° ESE daylight
24 Apr - 07:22:25 10° WNW 07:26:18 26° SW 07:30:11 10° S daylight
24 Apr - 17:52:44 10° SSW 17:57:14 42° SE 18:01:45 10° ENE daylight
24 Apr - 19:36:31 10° W 19:39:18 15° NW 19:42:05 10° NNW visible
25 Apr - 06:05:39 10° NW 06:10:19 80° NE 06:14:58 10° SE daylight
25 Apr - 16:39:26 10° SSE 16:41:09 12° SE 16:42:53 10° ESE daylight
25 Apr - 18:18:36 10° SW 18:23:14 55° NW 18:27:54 10° NNE visible
26 Apr - 04:50:48 10° N 04:54:19 21° NE 04:57:48 10° E visible
26 Apr - 06:32:16 10° WNW 06:36:20 29° SW 06:40:22 10° S daylight
26 Apr - 17:02:53 10° SSW 17:07:15 37° SE 17:11:39 10° ENE daylight
26 Apr - 18:46:12 10° W 18:49:19 17° NW 18:52:26 10° N visible
27 Apr - 05:15:41 10° NNW 05:20:21 70° NE 05:25:00 10° SE visible
27 Apr - 15:50:34 10° SE 15:51:10 10° SE 15:51:47 10° ESE daylight
27 Apr - 17:28:36 10° SW 17:33:16 63° NW 17:37:58 10° NNE daylight
